User: anonymous   Login
Location: Unspecified
(0.0000°N, 0.0000°E)
Time: 06:19:33
(UTC+00:00)
Language:

OFEQ 9 - Orbit

View from above orbital plane
View from above orbital plane
View from above satellite
View from above satellite

Ground track
Ground track

The orbit data is extracted from the following two-line orbital elements,

1 36608U 10031A   19029.71234386 0.00001050  00000-0  41443-4 0    02
2 36608 141.7365 136.5445 0007000 174.7207 185.2785 15.24625196    02
Epoch (UTC): 29 January 2019 17:05:46
Eccentricity: 0.0007000
inclination: 141.7365°
perigee height: 487 km
apogee height: 497 km
right ascension of ascending node: 136.5445°
argument of perigee: 174.7207°
revolutions per day: 15.24625196
mean anomaly at epoch: 185.2785°
orbit number at epoch: 0

The dashed part of the orbit path shows where the satellite is in the earth's shadow,  

DLR